Hourly Data Report for October 06, 2017

All times are specified in Local Standard Time (LST). Add 1 hour to adjust for Daylight Saving Time where and when it is observed.

PARRSBORO
NOVA SCOTIA

45°24'48.000" N
64°20'49.000" W
30.90 m
8204402
71493
APR

Download Data

Hourly Data (October 2017)
Hourly Data Report for October 6, 2017
Temp Definition
°C
Dew Point Temp Definition
°C
Rel Hum Definition
%
Wind Dir Definition
10's deg

Wind Spd Definition
km/h
Visibility Definition
km
Stn Press Definition
kPa
Hmdx Definition


Wind Chill Definition


Weather Definition


TIME
00:00 8.7 8.1 96 24 2   100.99     LegendNANA
01:00 7.9 7.3 96   0   101.01     LegendNANA
02:00 9.7 9.2 97 29 1   101.00     LegendNANA
03:00 10.0 9.5 97   0   100.98     LegendNANA
04:00 10.0 9.5 97 27 1   101.00     LegendNANA
05:00 10.8 10.3 96 30 1   101.03     LegendNANA
06:00 11.4 10.9 97 27 4   101.10     LegendNANA
07:00 8.8 8.3 97   0   101.18     LegendNANA
08:00 9.8 9.2 97   0   101.24     LegendNANA
09:00 13.8 10.2 79 26 2   101.28     LegendNANA
10:00 16.1 7.8 58 31 5   101.28     LegendNANA
11:00 15.9 7.2 56 29 9   101.26     LegendNANA
12:00 16.1 8.7 61 22 7   101.26     LegendNANA
13:00 15.4 8.2 62 24 6   101.25     LegendNANA
14:00 14.7 8.2 65 26 11   101.25     LegendNANA
15:00 15.0 8.2 64 26 11   101.25     LegendNANA
16:00 14.2 9.2 72 26 11   101.25     LegendNANA
17:00 13.9 9.1 72 25 6   101.25     LegendNANA
18:00 12.5 9.3 81 27 3   101.29     LegendNANA
19:00 11.6 9.3 86 26 1   101.35     LegendNANA
20:00 10.7 9.2 90 26 3   101.38     LegendNANA
21:00 9.6 8.4 92 0 1   101.46     LegendNANA
22:00 9.8 9.0 95 25 1   101.53     LegendNANA
23:00 7.6 6.7 95   0   101.59     LegendNANA

Notes on Data Quality.

Legend

  • E = Estimated
  • M = Missing
  • NA = Not Available
  • ‡ = Partner data that is not subject to review by the National Climate Archives
Date modified: